Location: *
(38.3914°N, 75.0697°W)
Time: 19:01:47
(UTC+00:00)

CZ-4B R/B - Pass Details

Date: 17 February 2020
Orbit: 486 x 652 km, 97.9° (Epoch: 05 April)

Event Time Altitude Azimuth Distance (km) Brightness Sun altitude
Rises 10:03:19 0° 7° (N) 2,628 6.4 -21.3°
Reaches altitude 10° 10:05:28 10° 2° (N) 1,719 5.4 -20.9°
Enters shadow 10:07:31 29° 347° (NNW) 929 3.8 -20.5°
